TimePST,TemperatureF,Dew PointF,Humidity,Sea Level PressureIn,VisibilityMPH,Wind Direction,Wind SpeedMPH,Gust SpeedMPH,PrecipitationIn,Events,Conditions,WindDirDegrees,DateUTC
12:56 AM,-11.0,-15.0,83,30.71,6.0,East,8.1,-,N/A,,Clear,90,2013-01-04 08:56:00
1:56 AM,-11.9,-15.0,86,30.72,3.0,Calm,Calm,-,N/A,,Clear,0,2013-01-04 09:56:00
2:37 AM,-11.2,-16.6,77,30.38,2.5,East,4.6,-,N/A,,Haze,80,2013-01-04 10:37:00
2:56 AM,-13.0,-17.0,82,30.72,10.0,ENE,3.5,-,N/A,,Partly Cloudy,60,2013-01-04 10:56:00
3:56 AM,-14.1,-18.0,82,30.74,5.0,East,4.6,-,N/A,,Partly Cloudy,80,2013-01-04 11:56:00
4:56 AM,-15.0,-20.0,78,30.74,5.0,East,5.8,-,N/A,,Haze,100,2013-01-04 12:56:00
5:56 AM,-17.0,-20.9,82,30.76,10.0,ENE,5.8,-,N/A,,Partly Cloudy,60,2013-01-04 13:56:00
6:56 AM,-17.0,-20.9,82,30.81,3.0,East,5.8,-,N/A,,Clear,80,2013-01-04 14:56:00
7:35 AM,-16.6,-20.2,84,30.39,5.0,East,3.5,-,N/A,,Scattered Clouds,90,2013-01-04 15:35:00
7:45 AM,-14.8,-18.4,84,30.40,2.5,ENE,3.5,-,N/A,,Scattered Clouds,70,2013-01-04 15:45:00
7:53 AM,-14.8,-18.4,84,30.40,9.0,ENE,3.5,-,N/A,,Partly Cloudy,70,2013-01-04 15:53:00
7:56 AM,-14.1,-17.0,87,30.80,9.0,Calm,Calm,-,N/A,,Partly Cloudy,0,2013-01-04 15:56:00
8:32 AM,-11.2,-16.6,77,30.41,2.0,East,3.5,-,N/A,,Mostly Cloudy,80,2013-01-04 16:32:00
8:40 AM,-11.2,-16.6,77,30.41,4.0,East,5.8,-,N/A,,Scattered Clouds,80,2013-01-04 16:40:00
8:56 AM,-11.0,-15.0,83,30.79,9.0,ENE,4.6,-,N/A,,Partly Cloudy,70,2013-01-04 16:56:00
9:56 AM,-7.1,-11.0,83,30.79,10.0,ENE,4.6,-,N/A,,Clear,70,2013-01-04 17:56:00
10:56 AM,-2.0,-7.1,79,30.75,10.0,Calm,Calm,-,N/A,,Clear,0,2013-01-04 18:56:00
11:56 AM,1.9,-6.0,69,30.70,10.0,Calm,Calm,-,N/A,,Clear,0,2013-01-04 19:56:00
12:56 PM,5.0,-4.0,66,30.67,10.0,East,3.5,-,N/A,,Clear,90,2013-01-04 20:56:00
1:56 PM,7.0,-0.9,70,30.66,10.0,ESE,3.5,-,N/A,,Clear,110,2013-01-04 21:56:00
2:56 PM,8.1,-0.9,67,30.66,10.0,Calm,Calm,-,N/A,,Clear,0,2013-01-04 22:56:00
3:56 PM,8.1,-0.9,67,30.66,10.0,East,4.6,-,N/A,,Clear,90,2013-01-04 23:56:00
4:56 PM,3.9,-2.9,73,30.68,10.0,East,4.6,-,N/A,,Clear,100,2013-01-05 00:56:00
5:56 PM,-0.9,-8.0,72,30.71,10.0,Calm,Calm,-,N/A,,Clear,0,2013-01-05 01:56:00
6:56 PM,-6.0,-9.9,83,30.75,10.0,Calm,Calm,-,N/A,,Clear,0,2013-01-05 02:56:00
7:45 PM,-5.8,-9.4,84,30.34,10.0,Calm,Calm,-,N/A,,Partly Cloudy,0,2013-01-05 03:45:00
7:56 PM,-6.0,-11.0,79,30.74,10.0,Calm,Calm,-,N/A,,Partly Cloudy,0,2013-01-05 03:56:00
8:56 PM,-7.1,-9.9,87,30.74,10.0,Calm,Calm,-,N/A,,Clear,0,2013-01-05 04:56:00
9:56 PM,-7.1,-11.9,79,30.73,10.0,Calm,Calm,-,N/A,,Clear,0,2013-01-05 05:56:00
10:56 PM,-6.0,-9.9,83,30.71,10.0,ENE,3.5,-,N/A,,Clear,70,2013-01-05 06:56:00
11:56 PM,-7.1,-11.9,79,30.69,10.0,ENE,3.5,-,N/A,,Clear,70,2013-01-05 07:56:00